TimeCDT,TemperatureF,Dew PointF,Humidity,Sea Level PressureIn,VisibilityMPH,Wind Direction,Wind SpeedMPH,Gust SpeedMPH,PrecipitationIn,Events,Conditions,WindDirDegrees,DateUTC
12:56 AM,46.0,46.0,100,30.32,8.0,Calm,Calm,-,N/A,,Clear,0,2013-09-16 05:56:00
1:05 AM,46.4,46.4,100,30.31,2.0,NE,3.5,-,N/A,,Clear,40,2013-09-16 06:05:00
1:13 AM,46.4,44.6,93,30.31,10.0,NE,4.6,-,N/A,,Clear,50,2013-09-16 06:13:00
1:56 AM,46.0,45.0,96,30.33,9.0,Calm,Calm,-,N/A,,Clear,0,2013-09-16 06:56:00
2:19 AM,44.6,44.6,100,30.32,1.8,Calm,Calm,-,N/A,,Clear,0,2013-09-16 07:19:00
2:29 AM,46.4,44.6,93,30.32,0.8,Calm,Calm,-,N/A,,Clear,0,2013-09-16 07:29:00
2:38 AM,46.4,44.6,93,30.32,0.2,Calm,Calm,-,N/A,Fog,Fog,0,2013-09-16 07:38:00
2:56 AM,45.0,44.1,97,30.34,0.2,Calm,Calm,-,N/A,Fog,Fog,0,2013-09-16 07:56:00
3:00 AM,44.6,44.6,100,30.33,0.5,Calm,Calm,-,N/A,Fog,Fog,0,2013-09-16 08:00:00
3:14 AM,44.6,44.6,100,30.33,0.2,Calm,Calm,-,N/A,Fog,Fog,0,2013-09-16 08:14:00
3:25 AM,44.6,44.6,100,30.32,0.2,Calm,Calm,-,N/A,Fog,Fog,0,2013-09-16 08:25:00
3:39 AM,42.8,42.8,100,30.33,1.0,NNE,3.5,-,N/A,,Clear,30,2013-09-16 08:39:00
3:42 AM,44.6,44.6,100,30.33,3.0,NNE,4.6,-,N/A,,Partly Cloudy,30,2013-09-16 08:42:00
3:56 AM,46.0,46.0,100,30.34,10.0,NNE,4.6,-,N/A,,Mostly Cloudy,30,2013-09-16 08:56:00
4:56 AM,46.9,46.0,97,30.35,10.0,NE,5.8,-,N/A,,Mostly Cloudy,40,2013-09-16 09:56:00
5:52 AM,46.4,46.4,100,30.34,10.0,NE,3.5,-,N/A,,Mostly Cloudy,50,2013-09-16 10:52:00
5:56 AM,46.9,46.0,97,30.35,10.0,NE,3.5,-,N/A,,Mostly Cloudy,40,2013-09-16 10:56:00
6:56 AM,50.0,48.9,96,30.36,10.0,ENE,4.6,-,N/A,,Mostly Cloudy,70,2013-09-16 11:56:00
7:56 AM,50.0,48.9,96,30.37,10.0,East,3.5,-,N/A,,Mostly Cloudy,90,2013-09-16 12:56:00
8:56 AM,53.1,48.9,86,30.37,10.0,East,5.8,-,N/A,,Partly Cloudy,100,2013-09-16 13:56:00
9:56 AM,57.0,50.0,77,30.38,10.0,ESE,10.4,-,N/A,,Scattered Clouds,110,2013-09-16 14:56:00
10:56 AM,60.1,51.1,72,30.37,10.0,SE,9.2,-,N/A,,Mostly Cloudy,130,2013-09-16 15:56:00
11:56 AM,62.1,48.0,60,30.36,10.0,SE,4.6,-,N/A,,Scattered Clouds,140,2013-09-16 16:56:00
12:56 PM,64.0,48.9,58,30.34,10.0,SSE,11.5,-,N/A,,Mostly Cloudy,160,2013-09-16 17:56:00
1:56 PM,66.0,48.9,54,30.32,10.0,SSE,10.4,19.6,N/A,,Overcast,160,2013-09-16 18:56:00
2:56 PM,66.0,50.0,56,30.29,10.0,South,12.7,-,N/A,,Mostly Cloudy,170,2013-09-16 19:56:00
3:56 PM,66.0,48.9,54,30.26,10.0,SSE,9.2,-,N/A,,Mostly Cloudy,160,2013-09-16 20:56:00
4:56 PM,68.0,48.0,49,30.23,10.0,SE,13.8,-,N/A,,Scattered Clouds,130,2013-09-16 21:56:00
5:56 PM,66.9,48.9,52,30.22,10.0,SSE,10.4,-,N/A,,Scattered Clouds,150,2013-09-16 22:56:00
6:56 PM,64.0,48.9,58,30.21,10.0,SSE,10.4,-,N/A,,Partly Cloudy,150,2013-09-16 23:56:00
7:56 PM,61.0,48.0,62,30.19,10.0,SE,6.9,-,N/A,,Partly Cloudy,140,2013-09-17 00:56:00
8:56 PM,60.1,48.9,67,30.19,10.0,SE,6.9,-,N/A,,Partly Cloudy,140,2013-09-17 01:56:00
9:56 PM,59.0,48.0,67,30.19,10.0,SE,9.2,-,N/A,,Clear,140,2013-09-17 02:56:00
10:56 PM,57.9,48.0,70,30.18,10.0,SSE,11.5,-,N/A,,Partly Cloudy,150,2013-09-17 03:56:00
11:56 PM,55.9,48.9,77,30.19,10.0,SSE,11.5,-,N/A,,Partly Cloudy,150,2013-09-17 04:56:00